Flag for Canada Weather past 2 weeks in Saint-Georges, Quebec, Canada

Now
2 °F

Frigid.


Feels Like: -11 °F
Forecast: 2 / 9 °F
Wind: 7 mph from Northeast

Location: Beauceville

Current Time: Jan 27, 2015 at 4:25:52 AM

Latest Report: Jan 27, 2015 at 4:00 AM


Visibility: N/A

Pressure: 30.15 "Hg

Humidity: 57%

Dew point: -10 °F

Location of Saint-GeorgesLocation

Historic Weather in Saint-Georges — Graph

°F

Saint-Georges temperature yesterday

Maximum temperature yesterday: 8 °F (at 3:00 PM)
Minimum temperature yesterday: -7 °F (at 7:00 AM)
Average temperature yesterday: 0 °F

Past Weeks' High & Low Weather Summary

 TemperatureHumidityPressure
High42 °F (Jan 18, 2:00 PM)99% (Jan 19, 12:00 AM)30.70 "Hg (Jan 19, 12:00 AM)
Low-24 °F (Jan 14, 7:00 AM)37% (Jan 26, 3:00 PM)29.15 "Hg (Jan 25, 1:00 AM)
Average10 °F74%29.99 "Hg
* Reported Jan 12 3:00 AM — Jan 27 3:00 AM, Saint-Georges, Weather by CustomWeather, © 2014

Note: Actual official high and low records may vary slightly from our data, if they occured in-between our weather recording intervals... More about our weather records

Advertising

Saint-Georges weather history for previous 24 hours

 ConditionsComfort  
Time TempWeatherWind HumidityBarometerVisibility
3:00 AM
Jan 27
2 °FFrigid.9 mph53%30.18 "HgN/A
2:00 AM3 °FFrigid.8 mph56%30.23 "HgN/A
1:00 AM4 °FFrigid.7 mph52%30.22 "HgN/A
12:00 AM4 °FFrigid.3 mph54%30.24 "HgN/A
11:00 PM
Jan 26
-1 °FFrigid.1 mph71%30.25 "HgN/A
10:00 PM-2 °FFrigid.1 mph79%30.26 "HgN/A
9:00 PM-2 °FFrigid.No wind73%30.27 "HgN/A
8:00 PM-2 °FFrigid.1 mph70%30.25 "HgN/A
7:00 PM1 °FFrigid.2 mph59%30.24 "HgN/A
6:00 PM-1 °FFrigid.1 mph63%30.25 "HgN/A
5:00 PM2 °FFrigid.2 mph57%30.22 "HgN/A
4:00 PM5 °FFrigid.3 mph49%30.19 "HgN/A
3:00 PM8 °FFrigid.2 mph37%30.19 "HgN/A
2:00 PM7 °FFrigid.5 mph39%30.19 "HgN/A
1:00 PM7 °FFrigid.1 mph47%30.20 "HgN/A
12:00 PM4 °FFrigid.2 mphN/A30.20 "HgN/A
11:00 AM1 °FFrigid.2 mphN/A30.22 "HgN/A
10:00 AM-2 °FFrigid.5 mph67%30.22 "HgN/A
9:00 AM-3 °FFrigid.2 mph68%30.20 "HgN/A
8:00 AM-7 °FFrigid.6 mph76%30.19 "HgN/A
7:00 AM-7 °FFrigid.6 mph87%30.16 "HgN/A
5:00 AM-5 °FFrigid.3 mph76%30.11 "HgN/A
4:00 AM-4 °FFrigid.5 mph74%30.08 "HgN/A
Weather by CustomWeather, © 2014

See weather overviewHow to use our weather pages